DW2715 Weather Reports


Display with metric or nautical units.
time (UTC)temp
F
wind
direction
speed
MPH
gust
MPH
rain 1hr
in
rain 24hr
in
rain mn
in
humidity
%
barometer
mb
20260505124935 60 96 1.0 4.0 0.00 0.03 0.03 84 1014.1
20260505123931 60 76 2.0 4.0 0.00 0.03 0.03 84 1014.1
20260505123431 60 64 2.0 4.0 0.00 0.03 0.03 84 1014.1
20260505122930 60 30 2.0 6.0 0.00 0.03 0.03 84 1014.1
20260505122431 60 28 2.0 6.0 0.00 0.03 0.03 83 1014.2
20260505121930 60 102 2.0 7.0 0.00 0.03 0.03 83 1014.2
20260505121432 60 91 3.0 8.0 0.00 0.03 0.03 82 1014.2
20260505120427 60 61 2.0 7.0 0.00 0.03 0.03 82 1014.3
20260505115919 60 102 2.0 7.0 0.00 0.03 0.03 81 1014.2
20260505115414 60 50 3.0 8.0 0.00 0.03 0.03 81 1014.2
20260505114906 60 107 3.0 8.0 0.00 0.03 0.03 80 1014.3
20260505114406 60 98 3.0 8.0 0.00 0.03 0.03 80 1014.3
20260505113904 60 116 5.0 10.0 0.00 0.03 0.03 80 1014.3
20260505113406 60 88 4.0 10.0 0.01 0.03 0.03 79 1014.2
20260505112906 60 53 4.0 10.0 0.01 0.03 0.03 80 1014.3
20260505112410 60 104 5.0 10.0 0.01 0.03 0.03 80 1014.2
20260505111905 60 113 5.0 10.0 0.01 0.03 0.03 80 1014.2
20260505111404 60 126 5.0 10.0 0.01 0.03 0.03 79 1014.1
20260505110904 60 117 5.0 12.0 0.01 0.03 0.03 79 1014.3
20260505110405 60 25 3.0 12.0 0.01 0.03 0.03 79 1014.3
20260505101903 60 126 2.0 7.0 0.00 0.02 0.02 77 1014.6
20260505101402 60 115 1.0 7.0 0.00 0.02 0.02 77 1014.7
20260505100904 60 142 1.0 3.0 0.00 0.02 0.02 78 1014.8
20260505100402 60 142 1.0 3.0 0.01 0.02 0.02 79 1014.9
20260505095903 60 146 1.0 4.0 0.02 0.02 0.02 80 1014.9
20260505094902 60 90 2.0 4.0 0.02 0.02 0.02 79 1014.8
20260505094402 60 115 2.0 4.0 0.02 0.02 0.02 80 1014.8
20260505093903 60 119 1.0 4.0 0.02 0.02 0.02 80 1014.6
20260505093402 60 101 1.0 3.0 0.02 0.02 0.02 80 1014.6
20260505092903 60 90 1.0 3.0 0.02 0.02 0.02 81 1014.6
20260505092403 60 149 0.0 3.0 0.02 0.02 0.02 81 1014.6
20260505091403 60 150 0.0 2.0 0.02 0.02 0.02 80 1014.6
20260505090902 60 163 0.0 1.0 0.02 0.02 0.02 80 1014.7
20260505090402 60 163 0.0 1.0 0.02 0.02 0.02 79 1014.7
20260505085903 60 163 0.0 0.0 0.01 0.00 0.01 78 1014.6
20260505085358 60 163 0.0 0.0 0.01 0.00 0.01 78 1014.6
20260505084358 60 163 0.0 0.0 0.00 0.00 0.00 78 1014.6
20260505083358 60 163 0.0 0.0 0.00 0.00 0.00 78 1014.6
20260505082356 60 163 0.0 0.0 0.00 0.00 0.00 76 1014.5
20260505081856 60 163 0.0 0.0 0.00 0.00 0.00 76 1014.5
20260505081357 60 163 0.0 0.0 0.00 0.00 0.00 76 1014.4
20260505080856 60 163 0.0 0.0 0.00 0.00 0.00 75 1014.4
20260505080356 60 163 0.0 2.0 0.00 0.00 0.00 75 1014.4
20260505075856 60 163 0.0 2.0 0.00 0.00 0.00 77 1014.5
20260505075354 60 163 0.0 2.0 0.00 0.00 0.00 77 1014.6
20260505074853 60 163 0.0 2.0 0.00 0.00 0.00 78 1014.6
20260505074351 60 164 0.0 2.0 0.00 0.00 0.00 78 1014.6
20260505073850 60 164 0.0 2.0 0.00 0.00 0.00 77 1014.6
20260505073350 60 177 0.0 2.0 0.00 0.00 0.00 77 1014.5
20260505072854 60 178 0.0 0.0 0.00 0.00 0.00 78 1014.5
20260505072350 60 178 0.0 1.0 0.00 0.00 0.00 78 1014.4
20260505071850 60 178 0.0 2.0 0.00 0.00 0.00 78 1014.4
20260505071350 60 176 0.0 2.0 0.00 0.00 0.00 78 1014.4
20260505070850 59 192 0.0 1.0 0.00 0.00 0.00 78 1014.4
20260505070350 59 192 0.0 3.0 0.00 0.00 0.00 78 1014.3
20260505065849 59 192 0.0 3.0 0.00 0.00 0.00 79 1014.3
20260505065351 59 163 0.0 0.0 0.00 0.00 0.00 79 1014.2
20260505064846 59 163 1.0 3.0 0.00 0.00 0.00 80 1014.2
20260505064346 59 163 1.0 3.0 0.00 0.00 0.00 81 1014.1
20260505063346 59 144 0.0 3.0 0.00 0.00 0.00 83 1014.2
20260505062846 59 147 1.0 4.0 0.00 0.00 0.00 83 1014.1
20260505062347 59 201 1.0 5.0 0.00 0.00 0.00 84 1014.2
20260505061850 59 169 1.0 5.0 0.00 0.00 0.00 85 1014.1
20260505061346 59 144 2.0 4.0 0.00 0.00 0.00 85 1014.0
20260505060346 58 152 2.0 4.0 0.00 0.00 0.00 86 1014.0
20260505055844 58 120 2.0 6.0 0.00 0.00 0.00 87 1013.9
20260505055344 58 122 1.0 6.0 0.00 0.00 0.00 87 1013.9
20260505054844 58 142 1.0 4.0 0.00 0.00 0.00 88 1013.8
20260505054342 58 105 1.0 3.0 0.00 0.00 0.00 88 1013.7
20260505053839 58 130 0.0 2.0 0.00 0.00 0.00 89 1013.6
20260505053340 58 119 0.0 2.0 0.00 0.00 0.00 89 1013.5
20260505052334 58 101 1.0 3.0 0.00 0.00 0.00 89 1013.4
20260505051333 59 83 0.0 0.0 0.00 0.00 0.00 90 1013.4
20260505050330 59 83 0.0 3.0 0.00 0.00 0.00 90 1013.5
20260505040819 58 94 2.0 4.0 0.00 0.00 0.00 89 1013.5
20260505040317 58 74 2.0 4.0 0.00 0.00 0.00 89 1013.5
20260505035818 58 72 2.0 4.0 0.00 0.00 0.00 89 1013.5
20260505035316 58 90 2.0 6.0 0.00 0.00 0.00 89 1013.4
20260505034816 58 107 1.0 6.0 0.00 0.00 0.00 89 1013.4
20260505034316 58 78 0.0 3.0 0.00 0.00 0.00 89 1013.4
20260505033814 58 74 1.0 4.0 0.00 0.00 0.00 89 1013.4
20260505033312 58 84 1.0 4.0 0.00 0.00 0.00 89 1013.3
20260505032809 58 57 1.0 3.0 0.00 0.00 0.00 89 1013.3
20260505032311 58 43 2.0 4.0 0.00 0.00 0.00 89 1013.3
20260505031805 58 47 2.0 4.0 0.00 0.00 0.00 88 1013.4
20260505031304 58 40 2.0 4.0 0.00 0.00 0.00 88 1013.5
20260505030805 58 28 2.0 4.0 0.00 0.00 0.00 88 1013.4
20260505030305 58 30 2.0 4.0 0.00 0.00 0.00 88 1013.5
20260505025803 58 49 2.0 5.0 0.00 0.00 0.00 88 1013.5
20260505025304 58 37 3.0 5.0 0.00 0.00 0.00 88 1013.5
20260505024801 59 36 3.0 5.0 0.00 0.00 0.00 88 1013.6
20260505024255 59 46 2.0 5.0 0.00 0.00 0.00 88 1013.6
20260505023749 59 36 1.0 4.0 0.00 0.00 0.00 89 1013.5
20260505023247 59 32 0.0 3.0 0.00 0.00 0.00 89 1013.6
20260505022749 59 83 0.0 1.0 0.00 0.00 0.00 88 1013.6
20260505022245 59 83 0.0 1.0 0.00 0.00 0.00 88 1013.7
20260505021744 59 86 0.0 1.0 0.00 0.00 0.00 88 1013.8
20260505021241 59 90 0.0 0.0 0.00 0.00 0.00 88 1013.8
20260505020739 59 90 0.0 2.0 0.00 0.00 0.00 87 1013.8
20260505020238 59 90 0.0 2.0 0.00 0.00 0.00 87 1013.9
20260505015736 59 90 0.0 2.0 0.00 0.00 0.00 87 1014.0
20260505015233 59 90 1.0 4.0 0.00 0.00 0.00 86 1014.0
20260505014731 58 89 1.0 4.0 0.00 0.00 0.00 86 1013.9
20260505014230 58 87 2.0 4.0 0.00 0.00 0.00 85 1014.0
20260505013731 58 84 1.0 3.0 0.00 0.00 0.00 85 1014.0
20260505013232 58 98 1.0 4.0 0.00 0.00 0.00 84 1014.1
20260505012731 58 101 2.0 4.0 0.00 0.00 0.00 84 1014.2
20260505011731 58 96 3.0 6.0 0.00 0.00 0.00 83 1014.2
20260505011231 58 66 3.0 6.0 0.00 0.00 0.00 82 1014.1
20260505010731 58 76 3.0 6.0 0.00 0.00 0.00 82 1014.2
20260505010231 58 90 2.0 6.0 0.00 0.00 0.00 82 1014.3
20260505005231 58 82 3.0 6.0 0.00 0.00 0.00 80 1014.4
20260505004730 58 84 2.0 4.0 0.00 0.00 0.00 79 1014.5
20260505004229 58 78 1.0 4.0 0.00 0.00 0.00 78 1014.5
20260505003727 58 89 0.0 0.0 0.00 0.00 0.00 77 1014.7
20260505003226 58 131 0.0 0.0 0.00 0.00 0.00 77 1014.8
20260505002726 58 131 0.0 0.0 0.00 0.00 0.00 77 1014.9
20260505001726 58 149 0.0 0.0 0.00 0.00 0.00 76 1015.0
20260505001224 58 149 1.0 5.0 0.00 0.00 0.00 76 1015.1
20260505000721 58 149 2.0 5.0 0.00 0.00 0.00 75 1015.1
20260505000221 58 133 1.0 4.0 0.00 0.00 0.00 75 1015.1
20260504235222 58 122 1.0 3.0 0.00 0.00 0.00 74 1015.1
20260504234721 58 96 2.0 4.0 0.00 0.00 0.00 74 1015.2
20260504234221 59 84 1.0 4.0 0.00 0.00 0.00 73 1015.3
20260504233720 59 82 0.0 4.0 0.00 0.00 0.00 73 1015.3
20260504233221 59 142 0.0 0.0 0.00 0.00 0.00 72 1015.4
20260504231721 60 92 0.0 0.0 0.00 0.00 0.00 71 1015.5
20260504231221 60 92 0.0 0.0 0.00 0.00 0.00 71 1015.5
20260504230721 60 94 0.0 0.0 0.00 0.00 0.00 70 1015.6
20260504225721 60 61 0.0 0.0 0.00 0.00 0.00 70 1015.7
20260504225221 60 5 0.0 0.0 0.00 0.00 0.00 69 1015.8
20260504224721 60 5 0.0 0.0 0.00 0.00 0.00 69 1015.7
20260504224221 60 5 0.0 0.0 0.00 0.00 0.00 69 1015.7
20260504223721 60 5 0.0 0.0 0.00 0.00 0.00 70 1015.8
20260504223221 60 5 0.0 0.0 0.00 0.00 0.00 70 1015.8
20260504222724 60 5 0.0 0.0 0.00 0.00 0.00 71 1015.8
20260504222220 60 5 0.0 0.0 0.00 0.00 0.00 71 1015.8
20260504221721 60 5 0.0 0.0 0.00 0.00 0.00 71 1015.8
20260504221219 60 5 0.0 0.0 0.00 0.00 0.00 71 1015.8
20260504220717 60 5 0.0 0.0 0.00 0.00 0.00 71 1015.8
20260504220214 60 5 0.0 0.0 0.00 0.00 0.00 71 1015.8
20260504215714 60 9 0.0 0.0 0.00 0.00 0.00 71 1015.8
20260504215214 60 15 0.0 0.0 0.00 0.00 0.00 71 1015.8
20260504214713 60 22 0.0 0.0 0.00 0.00 0.00 70 1015.8
20260504214212 61 192 0.0 0.0 0.00 0.00 0.00 69 1015.8
20260504213712 61 192 0.0 0.0 0.00 0.00 0.00 69 1015.8
20260504212713 61 194 0.0 0.0 0.00 0.00 0.00 69 1015.8
20260504211708 61 195 0.0 0.0 0.00 0.00 0.00 68 1015.9
20260504210709 61 213 0.0 0.0 0.00 0.00 0.00 67 1015.8
20260504210208 62 213 0.0 0.0 0.00 0.00 0.00 67 1015.9
20260504205709 62 213 0.0 0.0 0.00 0.00 0.00 66 1015.9
20260504205208 62 213 0.0 0.0 0.00 0.00 0.00 66 1015.8
20260504204709 62 213 0.0 3.0 0.00 0.00 0.00 66 1015.8
20260504204210 62 199 0.0 3.0 0.00 0.00 0.00 65 1015.8
20260504203708 62 199 1.0 2.0 0.00 0.00 0.00 65 1015.8
20260504203208 63 199 1.0 4.0 0.00 0.00 0.00 65 1015.8
20260504202708 63 199 1.0 4.0 0.00 0.00 0.00 64 1015.8
20260504202208 63 192 1.0 3.0 0.00 0.00 0.00 64 1015.8
20260504201709 63 192 0.0 2.0 0.00 0.00 0.00 63 1015.8
20260504201206 63 192 0.0 0.0 0.00 0.00 0.00 63 1015.7
20260504200705 64 190 0.0 0.0 0.00 0.00 0.00 62 1015.7
20260504200204 64 190 0.0 0.0 0.00 0.00 0.00 61 1015.7
20260504195703 64 195 0.0 0.0 0.00 0.00 0.00 61 1015.7
20260504195204 64 195 0.0 0.0 0.00 0.00 0.00 61 1015.7
20260504193704 65 196 0.0 0.0 0.00 0.00 0.00 59 1015.6
20260504192701 65 195 2.0 6.0 0.00 0.00 0.00 58 1015.7
20260504192155 65 186 2.0 8.0 0.00 0.00 0.00 57 1015.6
20260504191651 66 188 1.0 6.0 0.00 0.00 0.00 56 1015.6
20260504191143 66 179 0.0 3.0 0.00 0.00 0.00 54 1015.5
20260504190644 66 194 0.0 3.0 0.00 0.00 0.00 53 1015.5
20260504190141 67 166 0.0 0.0 0.00 0.00 0.00 52 1015.5
20260504184640 68 167 0.0 0.0 0.00 0.00 0.00 50 1015.4
20260504184138 68 183 0.0 0.0 0.00 0.00 0.00 49 1015.3
20260504183636 68 192 2.0 8.0 0.00 0.00 0.00 49 1015.3
20260504183135 69 155 3.0 12.0 0.00 0.00 0.00 49 1015.3
20260504182634 69 221 2.0 12.0 0.00 0.00 0.00 48 1015.3
20260504182135 69 186 2.0 10.0 0.00 0.00 0.00 48 1015.2
20260504181633 70 161 2.0 8.0 0.00 0.00 0.00 48 1015.3
20260504180631 71 202 3.0 13.0 0.00 0.00 0.00 46 1015.3
20260504180130 71 186 4.0 11.0 0.00 0.00 0.00 45 1015.2
20260504175631 72 201 3.0 11.0 0.00 0.00 0.00 44 1015.2
20260504175135 72 189 2.0 10.0 0.00 0.00 0.00 45 1015.1
20260504174630 73 184 3.0 14.0 0.00 0.00 0.00 44 1015.0
20260504174130 73 200 4.0 14.0 0.00 0.00 0.00 44 1015.0
20260504173630 73 186 4.0 11.0 0.00 0.00 0.00 44 1015.0
20260504173124 74 167 3.0 11.0 0.00 0.00 0.00 44 1015.0
20260504172617 74 144 3.0 10.0 0.00 0.00 0.00 43 1014.9
20260504172111 75 204 3.0 10.0 0.00 0.00 0.00 43 1014.9
20260504171103 75 177 0.0 3.0 0.00 0.00 0.00 36 1014.8
20260504170604 76 173 0.0 3.0 0.00 0.00 0.00 36 1014.8
20260504151045 76 105 3.0 11.0 0.00 0.00 0.00 47 1015.1
20260504150545 76 136 3.0 12.0 0.00 0.00 0.00 48 1015.2
20260504141037 78 132 3.0 11.0 0.00 0.00 0.00 46 1015.5
20260504140537 77 169 3.0 11.0 0.00 0.00 0.00 47 1015.6